TimeEDT,TemperatureF,Dew PointF,Humidity,Sea Level PressureIn,VisibilityMPH,Wind Direction,Wind SpeedMPH,Gust SpeedMPH,PrecipitationIn,Events,Conditions,WindDirDegrees,DateUTC
12:52 AM,36.0,21.9,57,30.31,10.0,NW,5.8,-,N/A,,Overcast,320,2013-03-28 04:52:00
1:52 AM,34.0,21.9,61,30.31,10.0,NW,5.8,-,N/A,,Mostly Cloudy,320,2013-03-28 05:52:00
2:52 AM,33.1,21.0,61,30.31,10.0,NW,3.5,-,N/A,,Clear,310,2013-03-28 06:52:00
3:52 AM,30.9,19.9,64,30.31,10.0,NW,5.8,-,N/A,,Clear,320,2013-03-28 07:52:00
4:52 AM,28.9,19.9,69,30.31,10.0,Calm,Calm,-,N/A,,Partly Cloudy,0,2013-03-28 08:52:00
5:52 AM,30.0,19.9,66,30.32,10.0,NW,3.5,-,N/A,,Partly Cloudy,320,2013-03-28 09:52:00
6:52 AM,24.1,19.9,84,30.33,10.0,Calm,Calm,-,N/A,,Clear,0,2013-03-28 10:52:00
7:52 AM,26.6,21.2,80,30.33,10.0,West,3.5,-,N/A,,Clear,280,2013-03-28 11:52:00
8:52 AM,30.9,24.1,76,30.35,10.0,West,3.5,-,N/A,,Clear,270,2013-03-28 12:52:00
9:52 AM,37.0,25.0,62,30.36,10.0,NNW,4.6,-,N/A,,Clear,340,2013-03-28 13:52:00
10:52 AM,39.9,23.0,51,30.37,10.0,Variable,3.5,-,N/A,,Clear,0,2013-03-28 14:52:00
11:52 AM,43.0,23.0,45,30.37,10.0,North,6.9,-,N/A,,Partly Cloudy,350,2013-03-28 15:52:00
12:52 PM,45.0,25.0,46,30.36,10.0,NNW,6.9,-,N/A,,Scattered Clouds,330,2013-03-28 16:52:00
1:52 PM,45.0,23.0,42,30.35,10.0,Calm,Calm,-,N/A,,Partly Cloudy,0,2013-03-28 17:52:00
2:52 PM,48.0,24.1,39,30.33,10.0,Calm,Calm,-,N/A,,Partly Cloudy,0,2013-03-28 18:52:00
3:52 PM,48.0,24.1,39,30.32,10.0,Variable,5.8,-,N/A,,Partly Cloudy,0,2013-03-28 19:52:00
4:52 PM,50.0,25.0,38,30.30,10.0,Variable,4.6,-,N/A,,Partly Cloudy,0,2013-03-28 20:52:00
5:52 PM,48.9,24.1,38,30.30,10.0,West,10.4,-,N/A,,Clear,280,2013-03-28 21:52:00
6:52 PM,48.0,24.1,39,30.30,10.0,NNW,6.9,-,N/A,,Clear,330,2013-03-28 22:52:00
7:52 PM,43.0,26.1,51,30.31,10.0,West,5.8,-,N/A,,Clear,280,2013-03-28 23:52:00
8:52 PM,44.1,25.0,47,30.31,10.0,NW,3.5,-,N/A,,Clear,320,2013-03-29 00:52:00
9:52 PM,39.9,25.0,55,30.32,10.0,Calm,Calm,-,N/A,,Clear,0,2013-03-29 01:52:00
10:52 PM,39.0,25.0,57,30.32,10.0,Calm,Calm,-,N/A,,Clear,0,2013-03-29 02:52:00
11:52 PM,36.0,25.0,64,30.32,10.0,Calm,Calm,-,N/A,,Partly Cloudy,0,2013-03-29 03:52:00